Weather in Bystry Istok

Russia / Altai Krai     52°22′16″N   84°23′23″E
temp.,
°C
wind,
m/s
gust,
m/s
humid.,
%
clouds,
%
prec.,
mm/h
press.,
hPa
HPBL,
m
27 january, wed
wed2701:00−14se1296100 0.7 103638
04:00−12sse2396100 0.8 1034128
07:00−10ssw2596100 1.8 1033220
10:00−4wsw71786100 1.4 1030824
13:00−3wsw91779100 1.4 1030874
16:00−3wsw8177793 0.0 1029933
19:00−4wsw8187883 0.0 1031761
22:00−3wsw81781100 0.1 1031881
28 january, thu
thu2801:00−3wsw81781100 0.3 1032893
04:00−4w71682100 0.1 1033813
07:00−6wsw61684100 0.1 1034695
10:00−6wsw51487100 0.0 1034603
13:00−3w71389100 1.0 1034996
16:00−4w71488100 0.1 1033986
19:00−6w5148691 0.1 1034407
22:00−7w5138699 0.0 1034410
29 january, fri
fri2901:00−6wsw6168495 0.0 1033637
04:00−5wsw6178297 0.0 1032687
07:00−3wsw7188098 0.0 1031734
10:00−1wsw81975100 0.0 1029842
13:000wsw101972100 0.0 1028960
16:000w91875100 0.0 10281009
19:00−2w71679100 0.0 1030900
22:00−3w81787100 0.4 1030841
30 january, sat
sat3001:00−4w81690100 1.9 1030869
04:00−4w81595100 2.1 1030838
07:00−5w71684100 2.8 1031680
10:00−6w61486100 0.1 1032560
13:00−5w61285100 0.1 1032616
16:00−5wnw41086100 0.0 1032548
19:00−9w2391100 0.0 103424
22:00−11sw129180 0.0 103421
31 january, sun
sun3101:00−14ese019249 0.0 103421
04:00−13e229235 0.0 103320
07:00−13e339323 0.0 103227
10:00−13e339245 0.0 103060
13:00−8ene358973 0.0 1028153
16:00−6ene3589100 0.0 1026158
19:00−9ene2389100 0.0 102523
22:00−10ene1191100 0.0 102321